Location: Lane
(33.5226°N, 79.8788°W)
Time: 18:46:28
(UTC+00:00)

Courier 1B Rocket - Pass Details

Date: 13 October 2022
Orbit: 920 x 1202 km, 28.3° (Epoch: 01 December)

Event Time Altitude Azimuth Distance (km) Brightness Sun altitude
Rises 20:05:57 0° 246° (WSW) 4,087 9.4 30.4°
Reaches altitude 10° 20:08:56 10° 241° (WSW) 3,113 9.3 29.9°
Maximum altitude 20:16:21 50° 169° (S) 1,438 6.5 28.6°
Drops below altitude 10° 20:23:26 10° 96° (E) 2,971 7.2 27.4°
Sets 20:26:12 0° 91° (E) 3,889 7.7 26.9°
